Retour au catalogue

STARLINK-36430

ActifCommunicationsVLEO
NORAD 67326·PAYLOAD·🇺🇸 United States

Lancé Jan 4, 2026 depuis Cape Canaveral Space Force Station

Loading…

Prochains Passages (prochaines 24 heures)

TLE

FraisSource: CelesTrak SupGP

Époque: Sep 15, 2026, 03:42 UTC

1 67326C 26002X   26258.15465278  .00044075  00000+0  15959-2 0  2583
2 67326  43.0021 334.8551 0001415 266.7012 317.1255 15.27567409    11

Suivez STARLINK-36430 en temps réel avec AllMySat

Download on the App Store